User: anonymous   Login
Location: 5810 Zion Rd, Cleves, OH 45002, USA
(39.1922°N, 84.7113°W)
Time: 18:05:53
(UTC-05:00)
Language:

ITAMSAT 1 - Orbit

View from above orbital plane
View from above orbital plane
View from above satellite
View from above satellite

Ground track
Ground track

The orbit data is extracted from the following two-line orbital elements,

1 22826U 93061D   20023.51502809 -.00000015  00000-0  11988-4 0  9994
2 22826 098.9129 022.2866 0009946 072.4679 287.7589 14.30410889373185
Epoch (UTC): 23 January 2020 12:21:38
Eccentricity: 0.0009946
inclination: 98.9129°
perigee height: 783 km
apogee height: 797 km
right ascension of ascending node: 22.2866°
argument of perigee: 72.4679°
revolutions per day: 14.30410889
mean anomaly at epoch: 287.7589°
orbit number at epoch: 37318

The dashed part of the orbit path shows where the satellite is in the earth's shadow,  

DLR